Simultaneous Nadir Overpasses (SNOs) Predictions

Prediction of SNOs between AQUA and METOP-A Satellite Orbit:

Table of predicted SNOs for the next 14.0 days since TLE Epoch: 5/2/2014
Index Date (AQUA) Time (AQUA) Lat,Lon (AQUA) SZA (AQUA ) Date (METOP-A) Time (METOP-A) Lat,Lon (METOP-A) SZA (METOP-A ) Distance(km) Time Diff (sec)
1 05/02/2014 20:22:06 -73.93, 48.66 121.64 05/02/2014 20:22:25 -73.93, 48.62 121.64 1.33 19
2 05/02/2014 21:11:46 74.56,-145.18 59.03 05/02/2014 21:12:52 74.57,-142.42 58.96 81.65 66
3 05/05/2014 15:06:57 73.89, -52.47 57.52 05/05/2014 15:06:08 73.89, -52.39 57.53 2.55 49
4 05/05/2014 15:56:23 -73.92, 115.11 122.46 05/05/2014 15:56:49 -73.92, 115.01 122.46 2.93 26
5 05/08/2014 10:41:12 73.87, 14.01 56.71 05/08/2014 10:40:31 73.88, 13.99 56.73 1.48 41
6 05/08/2014 11:30:39 -73.94,-178.52 123.22 05/08/2014 11:31:11 -73.96,-178.49 123.21 1.87 32
7 05/11/2014 06:15:28 73.88, 80.42 55.98 05/11/2014 06:14:55 73.86, 80.36 55.97 2.41 33
8 05/11/2014 07:04:55 -73.95,-112.10 123.95 05/11/2014 07:05:35 -73.94,-112.12 123.97 1.14 40
9 05/14/2014 01:49:43 73.87, 146.87 55.27 05/14/2014 01:49:18 73.89, 146.84 55.29 2.51 25
10 05/14/2014 02:39:10 -73.94, -45.64 124.67 05/14/2014 02:39:58 -73.97, -45.64 124.64 3.25 48




NCC Satellite Simultaneous Nadir Overpasses (SNOs) Prediction Service
